This demonstration page uses our WeatherBlox Daily Observations layout. Learn more.

Left ArrowRight Arrow

34.02893, -84.19858

Hourly Observations for November 23, 2019

Temp ( °F °C ) Dew Point ( °F °C ) Humidity (%) Winds ( mph kmh ) Pressure ( in mb ) Visibility ( mi km ) Precip ( " mm )
12:01 am 00:01 Cloudy 59 15 57 13.9 93 93 Calm 29.98 1015 8 13 0.00 0.00
12:48 am 00:48 Cloudy 59 15 57 14 94 94 Calm 29.97 1015 8 13 0.00 0.00
12:53 am 00:53 Cloudy 59 15 57 13.9 93 93 Calm 29.96 1015 8 13 0.00 0.00
1:53 am 01:53 Cloudy 59 15 57 13.9 93 93 SE 3 6 29.95 1014 8 13 0.00 0.00
2:17 am 02:17 Cloudy 59 15 57 13.9 93 93 Calm 29.96 1015 8 13 0.00 0.00
2:53 am 02:53 Cloudy 59 15 57 13.9 93 93 Calm 29.95 1014 9 14 0.00 0.00
3:53 am 03:53 Cloudy 60 15.6 57 13.9 90 90 S 6 9 29.93 1014 10 16 0.00 0.00
4:20 am 04:20 Cloudy with Light Rain 60 15.6 57 13.9 90 90 S 6 9 29.92 1013 9 14 0.00 0.00
4:53 am 04:53 Cloudy with Light Rain 59 15 58 14.4 96 96 S 5 7 29.91 1013 6 10 0.02 0.51
5:53 am 05:53 Cloudy with Light Rain 59 15 58 14.4 96 96 SSE 5 7 29.89 1012 4 6 0.03 0.76
6:53 am 06:53 Cloudy with Light Rain 59 15 58 14.4 96 96 S 5 7 29.91 1013 5 8 0.01 0.25
7:53 am 07:53 Cloudy with Light Rain 59 15 58 14.4 96 96 SSE 8 13 29.89 1012 4 6 0.05 1.27
8:01 am 08:01 Cloudy with Light Rain 59 15 58 14.4 96 96 S 7 11 29.89 1012 3 5 0.01 0.25
8:53 am 08:53 Cloudy with Light Rain 59 15 59 15 100 100 S 8 13 29.90 1012 5 8 0.04 1.02
9:00 am 09:00 Cloudy with Light Rain 60 15.6 59 15 96 96 S 9 15 29.90 1013 5 8 0.00 0.00
9:53 am 09:53 Cloudy with Light Rain 60 15.6 59 15 96 96 S 7 11 29.88 1012 4 6 0.04 1.02
11:53 am 11:53 Cloudy with Light Rain 62 16.7 61 16.1 96 96 S 10 17 29.82 1010 4 6 0.07 1.78
12:34 pm 12:34 Cloudy 63 17.2 61 16.1 93 93 S 10 17 29.77 1008 8 13 0.01 0.25
12:53 pm 12:53 Cloudy with Light Rain 63 17.2 61 16.1 93 93 S 12 19 29.76 1008 6 10 0.01 0.25
1:26 pm 13:26 Mostly Cloudy with Heavy Rain 62 16.7 62 16.7 100 100 S 8 13 29.74 1007 1 1 0.14 3.56
1:31 pm 13:31 Cloudy with Light Rain 62 16.7 62 16.7 100 100 S 10 17 29.74 1007 1 2 0.15 3.81
1:33 pm 13:33 Cloudy with Light Rain 62 16.7 62 16.7 100 100 S 10 17 29.74 1007 2 3 0.15 3.81
1:36 pm 13:36 Cloudy with Light Rain 62 16.7 62 16.7 100 100 S 10 17 29.74 1007 3 5 0.15 3.81
1:45 pm 13:45 Cloudy with Rain 62 16.7 62 16.7 100 100 SSW 13 20 29.74 1007 2 3 0.19 4.83
1:53 pm 13:53 Cloudy with Heavy Rain 62 16.7 62 16.7 100 100 SSW 10 17 29.73 1007 1 2 0.29 7.37
2:04 pm 14:04 Cloudy with Heavy Rain 62 16.7 62 16.7 100 100 SW 7 11 29.73 1007 1 2 0.11 2.79
2:53 pm 14:53 Cloudy with Mist and Fog 63 17.2 62 16.7 97 97 SSW 12 19 29.70 1006 1 2 0.31 7.87
3:10 pm 15:10 Cloudy 63 17.2 62 16.7 97 97 SW 9 15 29.70 1006 10 16 0.00 0.00
4:53 pm 16:53 Partly Cloudy 63 17.2 58 14.4 84 84 SW 12 19 29.70 1006 10 16 0.00 0.00
5:53 pm 17:53 Clear 59 15 54 12.2 83 83 W 7 11 29.72 1006 10 16 0.00 0.00
6:53 pm 18:53 Mostly Clear 56 13.3 48 8.9 75 75 WNW 14 22 29.76 1008 10 16 0.00 0.00
7:53 pm 19:53 Clear 53 11.7 43 6.1 69 69 W 17 28 29.79 1009 10 16 0.00 0.00
8:53 pm 20:53 Cloudy 50 10 43 6.1 77 77 W 17 28 29.82 1010 10 16 0.00 0.00
9:53 pm 21:53 Cloudy 48 8.9 41 5 77 77 WNW 20 31 29.84 1010 10 16 0.00 0.00
10:00 pm 22:00 Cloudy 48 8.9 41 5 77 77 WNW 15 24 29.86 1011 10 16 0.00 0.00
10:41 pm 22:41 Mostly Cloudy 47 8.3 40 4.4 77 77 WNW 13 20 29.86 1011 10 16 0.00 0.00
10:53 pm 22:53 Mostly Cloudy 47 8.3 39 3.9 74 74 WNW 17 28 29.84 1011 10 16 0.00 0.00
11:53 pm 23:53 Partly Cloudy 45 7.2 37 2.8 74 74 WNW 10 17 29.85 1011 10 16 0.00 0.00

Powered by AerisWeather